TimeCST,TemperatureF,Dew PointF,Humidity,Sea Level PressureIn,VisibilityMPH,Wind Direction,Wind SpeedMPH,Gust SpeedMPH,PrecipitationIn,Events,Conditions,WindDirDegrees,DateUTC
12:53 AM,34.0,26.1,73,30.17,10.0,SE,4.6,-,N/A,,Clear,140,2006-01-18 06:53:00
1:53 AM,32.0,25.0,75,30.18,10.0,ESE,3.5,-,N/A,,Clear,120,2006-01-18 07:53:00
2:53 AM,33.1,24.1,70,30.19,10.0,Calm,Calm,-,N/A,,Clear,0,2006-01-18 08:53:00
3:53 AM,32.0,21.9,66,30.20,10.0,Calm,Calm,-,N/A,,Clear,0,2006-01-18 09:53:00
4:53 AM,33.1,24.1,70,30.21,10.0,SE,3.5,-,N/A,,Clear,130,2006-01-18 10:53:00
6:53 AM,30.9,21.9,69,30.24,10.0,SE,6.9,-,N/A,,Clear,130,2006-01-18 12:53:00
7:53 AM,34.0,24.1,67,30.26,10.0,SE,3.5,-,N/A,,Clear,140,2006-01-18 13:53:00
8:53 AM,42.1,28.9,60,30.29,10.0,ESE,3.5,-,N/A,,Clear,120,2006-01-18 14:53:00
9:53 AM,52.0,32.0,47,30.31,10.0,SSW,8.1,-,N/A,,Clear,210,2006-01-18 15:53:00
10:53 AM,57.0,34.0,42,30.30,10.0,SW,13.8,-,N/A,,Clear,220,2006-01-18 16:53:00
11:53 AM,61.0,33.1,35,30.27,10.0,SW,15.0,20.7,N/A,,Clear,220,2006-01-18 17:53:00
12:53 PM,64.0,34.0,33,30.24,10.0,SW,11.5,-,N/A,,Clear,220,2006-01-18 18:53:00
1:53 PM,66.0,32.0,28,30.20,10.0,SW,10.4,-,N/A,,Clear,220,2006-01-18 19:53:00
2:53 PM,66.9,33.1,28,30.18,10.0,SSW,10.4,-,N/A,,Clear,210,2006-01-18 20:53:00
3:53 PM,66.0,35.1,32,30.18,10.0,SSW,12.7,-,N/A,,Clear,200,2006-01-18 21:53:00
4:53 PM,64.0,37.9,38,30.17,10.0,South,8.1,-,N/A,,Clear,190,2006-01-18 22:53:00
5:53 PM,61.0,39.9,46,30.19,10.0,South,9.2,-,N/A,,Clear,170,2006-01-18 23:53:00
6:53 PM,59.0,39.9,49,30.20,10.0,South,9.2,-,N/A,,Clear,180,2006-01-19 00:53:00
7:53 PM,57.9,39.9,51,30.21,10.0,South,8.1,-,N/A,,Clear,170,2006-01-19 01:53:00
8:53 PM,55.9,41.0,57,30.21,10.0,South,9.2,-,N/A,,Clear,170,2006-01-19 02:53:00
9:53 PM,52.0,42.1,69,30.22,10.0,SSE,6.9,-,N/A,,Clear,150,2006-01-19 03:53:00
10:53 PM,50.0,42.1,74,30.20,10.0,SSE,10.4,-,N/A,,Clear,150,2006-01-19 04:53:00
11:53 PM,55.0,44.1,67,30.19,10.0,South,9.2,-,N/A,,Clear,170,2006-01-19 05:53:00